M I D A S
Marine Information and Data Acquisition System
Tripno 394 of the Zeeleeuw from 2002-11-28 07:58:29 to 2002-11-28 15:38:08
Back to CruiseResearch ActivitiesStationsMapUnderway DataData graphs

EquipmentUnitsComments
TimeDGPSUTC
LatitudeDGPSDM.mWGS84
LongitudeDGPSDM.mWGS84
SpeedMeteo Stationm/sRelative wind speed
DirectionMeteo StationdegRelative wind direction
TemperatureMeteo Stationdeg CelciusAir temperature
PressureMeteo StationPaAtmospheric pressure
HumidityMeteo Station%Relative humidity
Missing or incorrect values are displayed as -999
Metereological data collected by the RV Zeeleeuw from 2002-11-28 07:58:29 to 2002-11-28 15:38:08
                                                                                    Next 1000 lines
Time Latitude Longitude Speed Direction Temperature Pressure Humidity
2002-11-28 07:58:39 51°13.663 2°55.911 2.4 146 7.6 100790 91
2002-11-28 07:58:44 51°13.665 2°55.904 2.1 144 7.6 100790 91
2002-11-28 07:58:48 51°13.667 2°55.899 2.2 148 7.6 100790 91
2002-11-28 07:58:54 51°13.669 2°55.891 2.1 143 7.6 100790 91
2002-11-28 07:58:59 51°13.671 2°55.885 2.4 166 7.6 100790 91
2002-11-28 07:59:05 51°13.672 2°55.877 2.6 124 7.6 100790 91
2002-11-28 07:59:09 51°13.674 2°55.871 3.2 133 7.6 100790 91
2002-11-28 07:59:14 51°13.675 2°55.864 2.6 164 7.6 100790 91
2002-11-28 07:59:19 51°13.677 2°55.857 1.8 150 7.6 100790 91
2002-11-28 07:59:24 51°13.678 2°55.85 2.4 133 7.6 100790 91
2002-11-28 07:59:29 51°13.679 2°55.843 3.6 110 7.6 100790 91
2002-11-28 07:59:34 51°13.68 2°55.836 5.4 115 7.6 100790 91
2002-11-28 07:59:39 51°13.681 2°55.83 4.6 120 7.6 100790 91
2002-11-28 07:59:44 51°13.682 2°55.823 4.1 118 7.6 100790 91
2002-11-28 07:59:49 51°13.683 2°55.816 3.5 117 7.6 100780 91
2002-11-28 07:59:54 51°13.683 2°55.81 2.9 136 7.6 100780 91
2002-11-28 07:59:59 51°13.683 2°55.804 3.7 133 7.6 100780 91
2002-11-28 08:00:05 51°13.684 2°55.797 3.4 130 7.6 100780 91
2002-11-28 08:00:08 51°13.684 2°55.793 3.9 113 7.6 100780 91
2002-11-28 08:00:15 51°13.684 2°55.786 5 112 7.6 100780 91
2002-11-28 08:00:19 51°13.684 2°55.782 4.3 123 7.6 100780 91
2002-11-28 08:00:25 51°13.684 2°55.776 4.5 119 7.6 100780 91
2002-11-28 08:00:29 51°13.684 2°55.772 4.7 106 7.6 100780 91
2002-11-28 08:00:34 51°13.684 2°55.768 4.1 115 7.6 100780 91
2002-11-28 08:00:38 51°13.685 2°55.765 3.8 141 7.6 100780 91
2002-11-28 08:00:45 51°13.685 2°55.76 3.4 138 7.6 100780 91
2002-11-28 08:00:49 51°13.684 2°55.758 3.2 125 7.6 100780 91
2002-11-28 08:00:54 51°13.684 2°55.755 2.8 128 7.6 100780 91
2002-11-28 08:00:59 51°13.685 2°55.753 2.7 123 7.6 100780 91
2002-11-28 08:01:05 51°13.685 2°55.751 2.5 101 7.6 100780 91
2002-11-28 08:01:09 51°13.685 2°55.75 3.6 114 7.6 100780 91
2002-11-28 08:01:15 51°13.685 2°55.75 3.7 137 7.6 100780 91
2002-11-28 08:01:19 51°13.686 2°55.75 3.3 137 7.6 100780 91
2002-11-28 08:01:25 51°13.687 2°55.75 3 111 7.6 100780 91
2002-11-28 08:01:29 51°13.687 2°55.75 2.1 75 7.6 100780 91
2002-11-28 08:01:35 51°13.689 2°55.751 3.1 89 7.6 100780 91
2002-11-28 08:01:38 51°13.689 2°55.751 3.7 83 7.6 100780 91
2002-11-28 08:01:45 51°13.692 2°55.753 3.9 79 7.6 100780 91
2002-11-28 08:01:48 51°13.693 2°55.753 3.9 73 7.6 100780 91
2002-11-28 08:01:54 51°13.696 2°55.754 3.6 60 7.6 100780 91
2002-11-28 08:01:58 51°13.698 2°55.755 2.7 51 7.6 100780 91
2002-11-28 08:02:05 51°13.702 2°55.755 2.3 38 7.6 100780 91
2002-11-28 08:02:09 51°13.705 2°55.755 2 70 7.6 100780 91
2002-11-28 08:02:15 51°13.71 2°55.754 2.2 69 7.6 100780 91
2002-11-28 08:02:19 51°13.713 2°55.753 2.3 19 7.6 100780 91
2002-11-28 08:02:24 51°13.717 2°55.75 2.1 19 7.6 100780 91
2002-11-28 08:02:29 51°13.722 2°55.747 2.5 359 7.6 100780 91
2002-11-28 08:02:34 51°13.727 2°55.743 1.7 356 7.6 100780 91
2002-11-28 08:02:38 51°13.731 2°55.739 2.3 357 7.6 100780 91
2002-11-28 08:02:44 51°13.737 2°55.732 2 11 7.6 100780 91
2002-11-28 08:02:48 51°13.742 2°55.728 2.8 360 7.6 100780 91
2002-11-28 08:02:54 51°13.749 2°55.721 2.6 7 7.6 100780 91
2002-11-28 08:02:58 51°13.754 2°55.716 2.4 349 7.6 100780 91
2002-11-28 08:03:04 51°13.762 2°55.708 1.8 14 7.6 100780 91
2002-11-28 08:03:08 51°13.767 2°55.702 3 13 7.6 100780 91
2002-11-28 08:03:14 51°13.775 2°55.693 3 23 7.6 100780 91
2002-11-28 08:03:19 51°13.782 2°55.685 2.5 27 7.6 100780 91
2002-11-28 08:03:25 51°13.791 2°55.676 3.1 11 7.6 100780 91
2002-11-28 08:03:28 51°13.796 2°55.671 1.9 56 7.6 100780 91
2002-11-28 08:03:35 51°13.807 2°55.661 2.2 61 7.6 100780 91
2002-11-28 08:03:39 51°13.814 2°55.655 2 36 7.6 100770 91
2002-11-28 08:03:44 51°13.823 2°55.647 2.1 65 7.6 100770 91
2002-11-28 08:03:48 51°13.83 2°55.642 2.3 47 7.6 100770 91
2002-11-28 08:03:54 51°13.841 2°55.634 2.7 42 7.6 100770 91
2002-11-28 08:03:59 51°13.85 2°55.627 3 48 7.6 100770 91
2002-11-28 08:04:04 51°13.86 2°55.621 2.6 35 7.6 100770 91
2002-11-28 08:04:08 51°13.867 2°55.616 2.3 36 7.6 100770 91
2002-11-28 08:04:14 51°13.879 2°55.608 1.9 38 7.6 100770 91
2002-11-28 08:04:19 51°13.889 2°55.602 1.8 6 7.6 100770 91
2002-11-28 08:04:25 51°13.9 2°55.594 1.5 355 7.6 100770 91
2002-11-28 08:04:29 51°13.907 2°55.589 1.2 359 7.7 100770 92
2002-11-28 08:04:34 51°13.917 2°55.583 1.5 14 7.7 100770 92
2002-11-28 08:04:39 51°13.926 2°55.576 0.7 355 7.7 100770 92
2002-11-28 08:04:44 51°13.935 2°55.57 0.5 352 7.7 100770 92
2002-11-28 08:04:49 51°13.944 2°55.564 1.3 69 7.7 100770 92
2002-11-28 08:04:55 51°13.954 2°55.557 1.8 65 7.7 100770 92
2002-11-28 08:04:59 51°13.961 2°55.553 1.8 61 7.7 100770 91
2002-11-28 08:05:04 51°13.969 2°55.547 1.8 63 7.7 100770 91
2002-11-28 08:05:08 51°13.976 2°55.543 1.8 31 7.6 100770 91
2002-11-28 08:05:14 51°13.986 2°55.536 1.2 33 7.6 100770 91
2002-11-28 08:05:19 51°13.993 2°55.531 2.2 54 7.7 100760 91
2002-11-28 08:05:25 51°14.003 2°55.524 2.7 58 7.7 100760 91
2002-11-28 08:05:29 51°14.009 2°55.52 2.2 69 7.7 100760 91
2002-11-28 08:05:34 51°14.016 2°55.515 2.1 72 7.7 100760 91
2002-11-28 08:05:39 51°14.023 2°55.509 2.7 133 7.7 100760 92
2002-11-28 08:05:44 51°14.03 2°55.504 2.5 56 7.7 100760 92
2002-11-28 08:05:48 51°14.036 2°55.5 3.3 29 7.7 100760 91
2002-11-28 08:05:55 51°14.045 2°55.492 3.3 27 7.7 100760 91
2002-11-28 08:05:58 51°14.049 2°55.488 2.6 54 7.7 100760 91
2002-11-28 08:06:04 51°14.057 2°55.482 4.2 38 7.7 100760 91
2002-11-28 08:06:08 51°14.062 2°55.478 4.1 38 7.7 100760 91
2002-11-28 08:06:14 51°14.07 2°55.471 3.4 32 7.7 100760 91
2002-11-28 08:06:19 51°14.076 2°55.466 3.1 36 7.7 100760 92
2002-11-28 08:06:24 51°14.083 2°55.461 3.3 318 7.7 100760 92
2002-11-28 08:06:29 51°14.089 2°55.455 3.6 52 7.7 100760 92
2002-11-28 08:06:35 51°14.097 2°55.449 3.3 57 7.7 100760 92
2002-11-28 08:06:38 51°14.101 2°55.447 3.4 53 7.7 100760 91
2002-11-28 08:06:45 51°14.109 2°55.44 3.1 48 7.7 100760 91
2002-11-28 08:06:49 51°14.114 2°55.436 2.9 45 7.7 100760 92
2002-11-28 08:06:55 51°14.121 2°55.43 2.6 48 7.7 100760 92
2002-11-28 08:06:59 51°14.126 2°55.426 3.5 10 7.8 100760 92
2002-11-28 08:07:05 51°14.133 2°55.42 3.6 25 7.8 100760 92
2002-11-28 08:07:09 51°14.138 2°55.416 3.1 19 7.8 100750 92
2002-11-28 08:07:15 51°14.145 2°55.41 3.9 11 7.8 100750 92
2002-11-28 08:07:19 51°14.15 2°55.407 3.7 29 7.8 100750 92
2002-11-28 08:07:25 51°14.157 2°55.401 4.1 25 7.8 100750 92
2002-11-28 08:07:29 51°14.161 2°55.397 3.2 317 7.8 100760 92
2002-11-28 08:07:35 51°14.168 2°55.391 3.7 37 7.8 100760 92
2002-11-28 08:07:39 51°14.173 2°55.387 2.8 316 7.8 100750 92
2002-11-28 08:07:45 51°14.18 2°55.381 2.8 43 7.8 100750 92
2002-11-28 08:07:49 51°14.184 2°55.377 3.7 31 7.8 100750 91
2002-11-28 08:07:53 51°14.189 2°55.374 3 31 7.8 100750 91
2002-11-28 08:07:58 51°14.194 2°55.368 2.7 43 7.8 100750 91
2002-11-28 08:08:04 51°14.201 2°55.362 2.8 35 7.8 100750 91
2002-11-28 08:08:08 51°14.205 2°55.358 2.5 42 7.8 100750 91
2002-11-28 08:08:14 51°14.212 2°55.351 2.7 29 7.8 100750 91
2002-11-28 08:08:19 51°14.217 2°55.345 2.9 12 7.8 100750 91
2002-11-28 08:08:24 51°14.222 2°55.339 3.1 22 7.8 100750 91
2002-11-28 08:08:29 51°14.227 2°55.333 3.2 16 7.8 100750 91
2002-11-28 08:08:35 51°14.234 2°55.325 3.2 11 7.8 100750 91
2002-11-28 08:08:39 51°14.238 2°55.32 3 2 7.8 100750 91
2002-11-28 08:08:44 51°14.243 2°55.313 3.6 15 7.8 100750 91
2002-11-28 08:08:48 51°14.247 2°55.308 2.1 8 7.9 100750 91
2002-11-28 08:08:55 51°14.254 2°55.298 2.8 348 7.9 100750 91
2002-11-28 08:08:59 51°14.258 2°55.292 2.7 15 7.8 100750 91
2002-11-28 08:09:05 51°14.264 2°55.283 2.6 16 7.8 100750 91
2002-11-28 08:09:09 51°14.268 2°55.276 3.1 8 7.9 100750 91
2002-11-28 08:09:15 51°14.274 2°55.265 3.7 4 7.9 100750 91
2002-11-28 08:09:19 51°14.279 2°55.257 4.1 339 7.8 100750 91
2002-11-28 08:09:25 51°14.286 2°55.243 3.6 3 7.8 100750 91
2002-11-28 08:09:29 51°14.291 2°55.233 2.1 343 7.8 100740 91
2002-11-28 08:09:35 51°14.299 2°55.216 1.2 333 7.8 100740 91
2002-11-28 08:09:39 51°14.305 2°55.204 2.2 303 7.8 100750 91
2002-11-28 08:09:45 51°14.314 2°55.185 1.8 319 7.8 100750 91
2002-11-28 08:09:49 51°14.32 2°55.171 2 346 7.9 100750 91
2002-11-28 08:09:55 51°14.33 2°55.15 0.9 327 7.9 100750 91
2002-11-28 08:09:59 51°14.337 2°55.136 1.8 349 7.8 100750 91
2002-11-28 08:10:04 51°14.346 2°55.117 2.1 347 7.8 100750 91
2002-11-28 08:10:09 51°14.355 2°55.098 1.6 343 7.8 100740 91
2002-11-28 08:10:15 51°14.366 2°55.074 1.2 6 7.8 100740 91
2002-11-28 08:10:19 51°14.374 2°55.059 1.2 270 7.8 100750 91
2002-11-28 08:10:25 51°14.385 2°55.035 2.1 293 7.8 100750 91
2002-11-28 08:10:29 51°14.394 2°55.02 2.2 283 7.8 100750 91
2002-11-28 08:10:35 51°14.407 2°54.996 2.1 265 7.8 100750 91
2002-11-28 08:10:39 51°14.416 2°54.981 2.4 274 7.8 100740 91
2002-11-28 08:10:45 51°14.429 2°54.957 2.5 283 7.8 100740 91
2002-11-28 08:10:49 51°14.439 2°54.94 2.9 280 7.8 100740 91
2002-11-28 08:10:55 51°14.453 2°54.917 3.8 269 7.8 100740 91
2002-11-28 08:10:59 51°14.462 2°54.902 4.3 290 7.8 100740 91
2002-11-28 08:11:05 51°14.477 2°54.878 4 298 7.8 100740 91
2002-11-28 08:11:09 51°14.487 2°54.863 3.3 308 7.8 100740 91
2002-11-28 08:11:15 51°14.502 2°54.84 3.6 301 7.8 100740 91
2002-11-28 08:11:19 51°14.511 2°54.825 3.8 285 7.8 100740 91
2002-11-28 08:11:25 51°14.526 2°54.803 3.7 293 7.8 100740 91
2002-11-28 08:11:29 51°14.537 2°54.788 4.4 286 7.8 100740 91
2002-11-28 08:11:35 51°14.552 2°54.766 3.7 281 7.8 100740 91
2002-11-28 08:11:39 51°14.562 2°54.752 2.1 288 7.8 100740 91
2002-11-28 08:11:45 51°14.577 2°54.73 2.4 296 7.8 100740 91
2002-11-28 08:11:48 51°14.585 2°54.719 1.5 340 7.8 100740 91
2002-11-28 08:11:53 51°14.597 2°54.7 1.1 304 7.8 100740 91
2002-11-28 08:11:59 51°14.612 2°54.678 1.1 322 7.8 100740 91
2002-11-28 08:12:05 51°14.627 2°54.656 1.8 322 7.8 100740 91
2002-11-28 08:12:09 51°14.637 2°54.64 3.5 307 7.8 100740 91
2002-11-28 08:12:15 51°14.652 2°54.617 3.6 303 7.8 100740 91
2002-11-28 08:12:19 51°14.663 2°54.602 2.7 333 7.8 100740 91
2002-11-28 08:12:25 51°14.679 2°54.579 1.9 335 7.8 100740 91
2002-11-28 08:12:29 51°14.69 2°54.566 2.3 331 7.8 100740 91
2002-11-28 08:12:34 51°14.704 2°54.549 1.5 356 7.8 100740 91
2002-11-28 08:12:39 51°14.719 2°54.533 1 343 7.8 100740 91
2002-11-28 08:12:44 51°14.735 2°54.517 1.5 347 7.8 100740 91
2002-11-28 08:12:49 51°14.751 2°54.503 0.9 8 7.8 100740 91
2002-11-28 08:12:54 51°14.767 2°54.49 1.6 294 7.8 100740 91
2002-11-28 08:12:58 51°14.78 2°54.48 1.7 310 7.8 100740 91
2002-11-28 08:13:04 51°14.8 2°54.465 0.7 349 7.8 100740 91
2002-11-28 08:13:08 51°14.814 2°54.455 1.4 351 7.8 100740 91
2002-11-28 08:13:14 51°14.833 2°54.44 2 359 7.8 100740 91
2002-11-28 08:13:19 51°14.85 2°54.427 2.1 355 7.8 100740 91
2002-11-28 08:13:24 51°14.866 2°54.414 2.6 352 7.8 100740 91
2002-11-28 08:13:29 51°14.883 2°54.4 2.7 348 7.8 100740 91
2002-11-28 08:13:34 51°14.899 2°54.387 2.2 356 7.8 100740 91
2002-11-28 08:13:39 51°14.915 2°54.373 2.6 1 7.8 100740 91
2002-11-28 08:13:45 51°14.934 2°54.356 2.2 10 7.8 100740 91
2002-11-28 08:13:48 51°14.944 2°54.348 1.2 37 7.8 100740 91
2002-11-28 08:13:54 51°14.963 2°54.331 1.3 14 7.8 100740 91
2002-11-28 08:13:58 51°14.976 2°54.32 1.2 328 7.8 100740 91
2002-11-28 08:14:05 51°14.999 2°54.3 1.7 291 7.8 100740 91
2002-11-28 08:14:09 51°15.012 2°54.289 1.2 291 7.8 100740 91
2002-11-28 08:14:14 51°15.028 2°54.275 0.8 344 7.8 100740 91
2002-11-28 08:14:18 51°15.042 2°54.263 1.3 321 7.8 100730 91
2002-11-28 08:14:24 51°15.061 2°54.246 0.6 337 7.8 100730 91
2002-11-28 08:14:29 51°15.078 2°54.231 2.1 300 7.8 100740 91
2002-11-28 08:14:34 51°15.094 2°54.215 2.6 299 7.8 100740 91
2002-11-28 08:14:39 51°15.111 2°54.2 2.5 292 7.8 100730 91
2002-11-28 08:14:45 51°15.131 2°54.181 3.1 306 7.8 100730 91
2002-11-28 08:14:48 51°15.141 2°54.171 2.8 301 7.8 100740 91
2002-11-28 08:14:54 51°15.161 2°54.153 1.3 331 7.8 100740 91
2002-11-28 08:14:58 51°15.174 2°54.14 1.5 339 7.9 100730 91
2002-11-28 08:15:04 51°15.194 2°54.122 1.4 343 7.9 100730 91
2002-11-28 08:15:08 51°15.207 2°54.109 1 322 7.9 100730 91
2002-11-28 08:15:14 51°15.228 2°54.092 0.9 329 7.9 100730 91
2002-11-28 08:15:19 51°15.245 2°54.076 1.5 343 7.9 100740 91
2002-11-28 08:15:24 51°15.262 2°54.061 0.7 336 7.9 100740 91
2002-11-28 08:15:28 51°15.275 2°54.048 0.4 346 7.9 100740 91
2002-11-28 08:15:34 51°15.296 2°54.03 1.2 338 7.9 100740 91
2002-11-28 08:15:39 51°15.313 2°54.014 0.9 326 7.9 100740 91
2002-11-28 08:15:44 51°15.33 2°53.998 0.7 338 7.9 100740 91
2002-11-28 08:15:48 51°15.343 2°53.986 2.3 309 7.9 100740 91
2002-11-28 08:15:54 51°15.364 2°53.968 2.9 304 7.9 100740 91
2002-11-28 08:15:58 51°15.378 2°53.955 1.4 334 7.9 100740 91
2002-11-28 08:16:04 51°15.398 2°53.937 0.8 351 7.9 100740 91
2002-11-28 08:16:08 51°15.412 2°53.925 1 308 7.9 100740 91
2002-11-28 08:16:14 51°15.432 2°53.906 1 298 7.9 100740 91
2002-11-28 08:16:18 51°15.446 2°53.893 1.5 283 7.9 100730 91
2002-11-28 08:16:24 51°15.466 2°53.874 1.8 296 7.9 100730 91
2002-11-28 08:16:28 51°15.48 2°53.862 1.7 316 7.9 100740 91
2002-11-28 08:16:34 51°15.501 2°53.843 1.4 328 7.9 100740 91
2002-11-28 08:16:38 51°15.514 2°53.831 1.3 294 7.9 100730 91
2002-11-28 08:16:44 51°15.535 2°53.812 1.3 319 7.9 100730 91
2002-11-28 08:16:48 51°15.549 2°53.8 1 327 7.9 100730 91
2002-11-28 08:16:54 51°15.569 2°53.781 1.2 352 7.9 100730 91
2002-11-28 08:16:58 51°15.583 2°53.769 1.1 328 7.9 100730 91
2002-11-28 08:17:04 51°15.603 2°53.75 1 349 7.9 100730 91
2002-11-28 08:17:08 51°15.617 2°53.738 2.9 293 7.9 100730 92
2002-11-28 08:17:14 51°15.638 2°53.719 3 303 7.9 100730 92
2002-11-28 08:17:18 51°15.651 2°53.707 1.2 10 7.9 100730 91
2002-11-28 08:17:24 51°15.672 2°53.688 1.3   7.9 100730 91
2002-11-28 08:17:28 51°15.686 2°53.676 1.8 323 7.9 100730 91
2002-11-28 08:17:34 51°15.707 2°53.657 1.9 285 7.9 100730 91
2002-11-28 08:17:38 51°15.72 2°53.645 1 344 7.9 100730 91
2002-11-28 08:17:44 51°15.741 2°53.627 0.9 336 7.9 100730 91
2002-11-28 08:17:48 51°15.755 2°53.614 0.8 326 7.9 100740 91
2002-11-28 08:17:54 51°15.775 2°53.596 0.9 317 7.9 100740 91
2002-11-28 08:17:58 51°15.789 2°53.583 1.2 344 7.9 100730 91
2002-11-28 08:18:04 51°15.809 2°53.565 1.4 344 7.9 100730 91
2002-11-28 08:18:09 51°15.827 2°53.55 1.9 296 7.9 100740 91
2002-11-28 08:18:14 51°15.843 2°53.534 2.3 289 7.9 100740 91
2002-11-28 08:18:18 51°15.857 2°53.522 3 286 7.9 100740 91
2002-11-28 08:18:24 51°15.878 2°53.503 3.1 285 7.9 100740 91
2002-11-28 08:18:28 51°15.891 2°53.491 3.1 292 7.9 100740 91
2002-11-28 08:18:34 51°15.912 2°53.473 2.8 295 7.9 100740 91
2002-11-28 08:18:39 51°15.929 2°53.458 2.5 290 7.9 100740 91
2002-11-28 08:18:44 51°15.946 2°53.442 3.3 286 7.9 100740 91
2002-11-28 08:18:48 51°15.96 2°53.43 2.6 308 8 100740 91
2002-11-28 08:18:54 51°15.98 2°53.412 1.8 310 8 100740 91
2002-11-28 08:18:58 51°15.994 2°53.4 1.8 315 8 100740 91
2002-11-28 08:19:04 51°16.014 2°53.382 2.2 318 8 100740 91
2002-11-28 08:19:08 51°16.028 2°53.369 2.2 284 8 100740 92
2002-11-28 08:19:14 51°16.048 2°53.351 1.9 287 8 100740 92
2002-11-28 08:19:19 51°16.065 2°53.336 2.3 308 8 100740 92
2002-11-28 08:19:24 51°16.083 2°53.321 2.3 291 8 100740 92
2002-11-28 08:19:28 51°16.096 2°53.309 2 301 8 100740 91
2002-11-28 08:19:34 51°16.117 2°53.291 2.7 302 8 100740 91
2002-11-28 08:19:39 51°16.134 2°53.276 3 284 8 100740 91
2002-11-28 08:19:44 51°16.151 2°53.26 3.5 292 8 100740 91
2002-11-28 08:19:48 51°16.165 2°53.248 4.5 297 8 100740 91
2002-11-28 08:19:54 51°16.185 2°53.23 4.8 299 8 100740 91
2002-11-28 08:19:58 51°16.199 2°53.218 3.6 304 8 100740 91
2002-11-28 08:20:04 51°16.219 2°53.199 2.3 309 8 100740 91
2002-11-28 08:20:08 51°16.233 2°53.187 2.6 302 8 100740 91
2002-11-28 08:20:12 51°16.247 2°53.175 2.8 298 8 100740 91
2002-11-28 08:20:19 51°16.271 2°53.154 3.2 288 8 100750 91
2002-11-28 08:20:24 51°16.288 2°53.139 3.6 293 8 100750 91
2002-11-28 08:20:28 51°16.301 2°53.127 3.5 297 8 100740 92
2002-11-28 08:20:34 51°16.322 2°53.109 3.4 292 8 100740 92
2002-11-28 08:20:39 51°16.339 2°53.094 3.6 302 8 100740 92
2002-11-28 08:20:44 51°16.356 2°53.079 4.7 301 8 100740 92
2002-11-28 08:20:48 51°16.37 2°53.068 2.9 320 8 100740 92
2002-11-28 08:20:54 51°16.391 2°53.051 3.8 303 8 100740 92
2002-11-28 08:20:59 51°16.409 2°53.037 3.2 312 8 100740 92
2002-11-28 08:21:04 51°16.426 2°53.022 3.7 294 8 100740 92
2002-11-28 08:21:08 51°16.44 2°53.012 4.2 297 8 100750 92
2002-11-28 08:21:14 51°16.461 2°52.995 4.6 299 8 100750 92
2002-11-28 08:21:18 51°16.475 2°52.983 3.9 300 8 100750 92
2002-11-28 08:21:24 51°16.496 2°52.966 2.6 309 8 100750 92
2002-11-28 08:21:28 51°16.51 2°52.955 3.1 304 8 100740 92
2002-11-28 08:21:32 51°16.524 2°52.944 3.6 293 8 100740 92
2002-11-28 08:21:39 51°16.549 2°52.924 3.8 297 8.1 100750 92
2002-11-28 08:21:44 51°16.566 2°52.91 3.6 309 8.1 100750 92
2002-11-28 08:21:48 51°16.58 2°52.899 3.8 304 8 100750 92
2002-11-28 08:21:54 51°16.601 2°52.881 3.8 307 8 100750 92
2002-11-28 08:21:59 51°16.619 2°52.867 1.4 314 8 100740 92
2002-11-28 08:22:04 51°16.636 2°52.852 1.9 320 8 100740 92
2002-11-28 08:22:08 51°16.65 2°52.841 1.4 320 8 100740 92
2002-11-28 08:22:14 51°16.671 2°52.824 1.5 304 8 100740 92
2002-11-28 08:22:19 51°16.688 2°52.809 2.3 294 8.1 100740 92
2002-11-28 08:22:24 51°16.706 2°52.796 3.2 299 8.1 100740 92
2002-11-28 08:22:28 51°16.72 2°52.784 1.4 324 8.1 100740 92
2002-11-28 08:22:34 51°16.741 2°52.769 1.3 321 8.1 100740 92
2002-11-28 08:22:39 51°16.759 2°52.756 1.1 315 8.1 100750 92
2002-11-28 08:22:44 51°16.777 2°52.743 1.4 332 8.1 100750 92
2002-11-28 08:22:48 51°16.791 2°52.733 1.3 296 8.1 100750 92
2002-11-28 08:22:54 51°16.813 2°52.718 2.7 293 8.1 100750 92
2002-11-28 08:22:59 51°16.831 2°52.707 2.4 330 8.1 100750 92
2002-11-28 08:23:05 51°16.853 2°52.692 2 330 8.1 100750 92
2002-11-28 08:23:08 51°16.864 2°52.685 1.8 285 8.1 100750 92
2002-11-28 08:23:15 51°16.889 2°52.667 0.9 332 8.1 100750 92
2002-11-28 08:23:18 51°16.9 2°52.66 1.4 341 8.1 100750 92
2002-11-28 08:23:24 51°16.922 2°52.647 1.4 345 8.1 100750 92
2002-11-28 08:23:28 51°16.936 2°52.637 2.4 319 8.1 100750 92
2002-11-28 08:23:35 51°16.963 2°52.621 1.9 341 8.1 100750 92
2002-11-28 08:23:39 51°16.978 2°52.612 1.3 314 8.1 100750 92
2002-11-28 08:23:44 51°16.996 2°52.601 1.1 335 8.1 100750 92
2002-11-28 08:23:49 51°17.015 2°52.59 2.2 324 8.1 100750 92
2002-11-28 08:23:54 51°17.033 2°52.579 1.4 307 8.1 100750 92
2002-11-28 08:23:59 51°17.052 2°52.568 1.7 300 8.1 100750 92
2002-11-28 08:24:04 51°17.071 2°52.557 1.3 307 8.1 100750 92
2002-11-28 08:24:09 51°17.089 2°52.546 2.5 289 8.1 100750 92
2002-11-28 08:24:14 51°17.108 2°52.535 2.2 323 8.1 100750 92
2002-11-28 08:24:18 51°17.123 2°52.526 1.4 342 8.1 100750 92
2002-11-28 08:24:24 51°17.145 2°52.513 0.9 344 8.1 100750 92
2002-11-28 08:24:28 51°17.16 2°52.504 0.8 333 8.1 100750 92
2002-11-28 08:24:34 51°17.182 2°52.49 0.8 346 8.1 100750 92
2002-11-28 08:24:39 51°17.201 2°52.479 1.4 324 8.1 100750 92
2002-11-28 08:24:44 51°17.219 2°52.468 2 350 8.1 100750 92
2002-11-28 08:24:48 51°17.234 2°52.459 0.9 334 8.1 100750 92
2002-11-28 08:24:54 51°17.257 2°52.445 0.9 340 8.1 100750 92
2002-11-28 08:24:59 51°17.275 2°52.434 1 324 8.1 100750 92
2002-11-28 08:25:04 51°17.294 2°52.423 1.2 300 8.1 100750 92
2002-11-28 08:25:09 51°17.313 2°52.412 0.6 328 8.1 100750 91
2002-11-28 08:25:14 51°17.332 2°52.4 1.5 346 8.1 100750 91
2002-11-28 08:25:19 51°17.35 2°52.389 1.8 333 8.1 100750 91
2002-11-28 08:25:24 51°17.369 2°52.379 1.8 356 8.1 100750 91
2002-11-28 08:25:29 51°17.388 2°52.369 0.9 341 8.1 100750 91
2002-11-28 08:25:34 51°17.407 2°52.36 0.8 358 8.1 100750 91
2002-11-28 08:25:39 51°17.427 2°52.351 1.5 11 8.1 100760 92
2002-11-28 08:25:44 51°17.446 2°52.343 1 316 8.1 100760 92
2002-11-28 08:25:48 51°17.461 2°52.337 0.5 327 8.1 100760 92
2002-11-28 08:25:54 51°17.485 2°52.327 0.3 350 8.1 100760 92
2002-11-28 08:25:59 51°17.504 2°52.319 0.8 5 8.1 100750 92
2002-11-28 08:26:04 51°17.523 2°52.311 0.5 354 8.1 100750 92
2002-11-28 08:26:09 51°17.543 2°52.303 1 359 8.1 100760 92
2002-11-28 08:26:14 51°17.562 2°52.295 1.4 353 8.1 100760 92
2002-11-28 08:26:19 51°17.581 2°52.287 0.7 355 8.1 100750 92
2002-11-28 08:26:24 51°17.601 2°52.28 0.8 356 8.1 100750 92
2002-11-28 08:26:28 51°17.617 2°52.275 0.9 326 8.1 100760 92
2002-11-28 08:26:34 51°17.64 2°52.266 0.6 24 8.1 100760 92
2002-11-28 08:26:39 51°17.66 2°52.26 0.7 359 8.1 100760 92
2002-11-28 08:26:45 51°17.683 2°52.252 0.6 352 8.1 100760 92
2002-11-28 08:26:49 51°17.699 2°52.247 0.3 317 8.1 100760 92
2002-11-28 08:26:55 51°17.723 2°52.239 0.7 284 8.1 100760 92
2002-11-28 08:26:59 51°17.738 2°52.234 0.5 339 8.2 100760 92
2002-11-28 08:27:05 51°17.762 2°52.227 0.3 346 8.2 100760 92
2002-11-28 08:27:09 51°17.778 2°52.221 0.5 332 8.2 100760 92
2002-11-28 08:27:14 51°17.797 2°52.215 0.6 352 8.2 100760 92
2002-11-28 08:27:19 51°17.817 2°52.209 1.2 324 8.2 100760 92
2002-11-28 08:27:24 51°17.836 2°52.202 1.5 348 8.2 100760 92
2002-11-28 08:27:29 51°17.856 2°52.198 1.5 350 8.2 100760 92
2002-11-28 08:27:34 51°17.876 2°52.192 0.8 346 8.2 100760 92
2002-11-28 08:27:39 51°17.896 2°52.186 1 309 8.2 100760 92
2002-11-28 08:27:44 51°17.916 2°52.182 0.7 335 8.2 100760 92
2002-11-28 08:27:49 51°17.936 2°52.176 0.6 335 8.2 100760 92
2002-11-28 08:27:54 51°17.956 2°52.171 0.6 350 8.2 100760 92
2002-11-28 08:27:59 51°17.976 2°52.167 1.9 3 8.2 100760 92
2002-11-28 08:28:04 51°17.996 2°52.161 2.7 11 8.2 100760 92
2002-11-28 08:28:09 51°18.016 2°52.157 2.1 14 8.2 100760 92
2002-11-28 08:28:14 51°18.036 2°52.152 2.1 5 8.2 100760 92
2002-11-28 08:28:19 51°18.056 2°52.147 2.3 27 8.2 100760 92
2002-11-28 08:28:24 51°18.076 2°52.145 3.5 16 8.2 100760 92
2002-11-28 08:28:28 51°18.092 2°52.14 2.3 40 8.3 100770 92
2002-11-28 08:28:34 51°18.116 2°52.137 2.3 8 8.3 100770 92
2002-11-28 08:28:38 51°18.132 2°52.132 2.4 39 8.2 100770 92
2002-11-28 08:28:44 51°18.156 2°52.128 1.9 24 8.2 100770 92
2002-11-28 08:28:48 51°18.172 2°52.126 1.8 11 8.2 100770 92
2002-11-28 08:28:54 51°18.196 2°52.122 1.9 17 8.2 100770 92
2002-11-28 08:28:59 51°18.216 2°52.119 2.7 34 8.2 100770 92
2002-11-28 08:29:04 51°18.237 2°52.115 2.5 52 8.2 100770 92
2002-11-28 08:29:08 51°18.253 2°52.113 2.1 20 8.2 100770 92
2002-11-28 08:29:15 51°18.281 2°52.108 2.4 29 8.2 100770 92
2002-11-28 08:29:19 51°18.297 2°52.105 1.5 13 8.2 100760 91
2002-11-28 08:29:24 51°18.317 2°52.101 1.4 11 8.2 100760 91
2002-11-28 08:29:28 51°18.333 2°52.098 1.5 15 8.2 100770 91
2002-11-28 08:29:34 51°18.357 2°52.093 1.7 7 8.2 100770 91
2002-11-28 08:29:38 51°18.373 2°52.091 1.7 55 8.2 100760 91
2002-11-28 08:29:44 51°18.397 2°52.086 1.3 5 8.2 100760 91
2002-11-28 08:29:48 51°18.414 2°52.083 0.8 12 8.2 100760 91
2002-11-28 08:29:52 51°18.43 2°52.081 2.1 19 8.2 100760 91
2002-11-28 08:29:59 51°18.458 2°52.075 0.8 10 8.3 100760 92
2002-11-28 08:30:04 51°18.478 2°52.072 0.7 29 8.3 100760 92
2002-11-28 08:30:08 51°18.494 2°52.069 0.6 205 8.2 100770 92
2002-11-28 08:30:14 51°18.518 2°52.065 0.7 231 8.2 100770 92
2002-11-28 08:30:18 51°18.534 2°52.062 0.7 287 8.3 100770 92
2002-11-28 08:30:24 51°18.558 2°52.058 1.5 294 8.3 100770 92
2002-11-28 08:30:28 51°18.574 2°52.054 0.8 283 8.3 100770 92
2002-11-28 08:30:34 51°18.599 2°52.05 1.1 356 8.3 100770 92
2002-11-28 08:30:38 51°18.615 2°52.047 0.4 335 8.2 100770 92
2002-11-28 08:30:44 51°18.639 2°52.043 1.7 322 8.2 100770 92
2002-11-28 08:30:48 51°18.655 2°52.04 1.1 7 8.3 100770 92
2002-11-28 08:30:54 51°18.679 2°52.035 1.1 345 8.3 100770 92
2002-11-28 08:30:58 51°18.695 2°52.032 0.9 351 8.3 100770 92
2002-11-28 08:31:04 51°18.719 2°52.028 1.3 348 8.3 100770 92
2002-11-28 08:31:08 51°18.735 2°52.025 0.8 311 8.3 100770 92
2002-11-28 08:31:14 51°18.759 2°52.02 0.7 357 8.3 100770 92
2002-11-28 08:31:19 51°18.779 2°52.016 0.6 351 8.3 100760 92
2002-11-28 08:31:24 51°18.799 2°52.013 0.7 11 8.3 100760 92
2002-11-28 08:31:29 51°18.819 2°52.008 1 18 8.3 100760 92
2002-11-28 08:31:34 51°18.839 2°52.003 0.9 12 8.3 100760 92
2002-11-28 08:31:38 51°18.855 2°52.001 0.6 3 8.3 100760 92
2002-11-28 08:31:45 51°18.883 2°51.996 0.7 17 8.3 100760 92
2002-11-28 08:31:48 51°18.895 2°51.995 0.9 335 8.3 100760 92
2002-11-28 08:31:54 51°18.919 2°51.989 0.5 33 8.3 100760 92
2002-11-28 08:31:58 51°18.935 2°51.987 0.9 358 8.3 100760 92
2002-11-28 08:32:04 51°18.959 2°51.982 1 39 8.3 100760 92
2002-11-28 08:32:08 51°18.975 2°51.98 0.9 22 8.3 100760 91
2002-11-28 08:32:14 51°18.999 2°51.975 1.4 13 8.3 100760 91
2002-11-28 08:32:19 51°19.019 2°51.971 0.7 17 8.3 100760 91
2002-11-28 08:32:25 51°19.043 2°51.968 0.6 21 8.3 100760 91
2002-11-28 08:32:29 51°19.059 2°51.965 0.4 10 8.3 100760 91
2002-11-28 08:32:35 51°19.084 2°51.961 0.2 5 8.3 100760 91
2002-11-28 08:32:38 51°19.095 2°51.959 0.9 29 8.3 100760 91
2002-11-28 08:32:45 51°19.124 2°51.954 0.8 347 8.3 100760 91
2002-11-28 08:32:49 51°19.14 2°51.951 0.4 318 8.3 100760 91
2002-11-28 08:32:55 51°19.164 2°51.947 0.2 38 8.3 100760 91
2002-11-28 08:32:58 51°19.176 2°51.945 0.1 55 8.3 100760 91
2002-11-28 08:33:05 51°19.204 2°51.942 0.1 63 8.3 100760 91
2002-11-28 08:33:09 51°19.22 2°51.939 0.1 93 8.3 100760 91
2002-11-28 08:33:14 51°19.24 2°51.938 0.4 104 8.3 100760 91
2002-11-28 08:33:18 51°19.256 2°51.937 0.2 80 8.3 100760 91
2002-11-28 08:33:25 51°19.284 2°51.934 0.5 73 8.3 100760 91
2002-11-28 08:33:28 51°19.297 2°51.933 0.8 55 8.3 100760 91
2002-11-28 08:33:34 51°19.321 2°51.93 0.9 46 8.3 100760 91
2002-11-28 08:33:38 51°19.337 2°51.929 0.7 79 8.3 100760 91
2002-11-28 08:33:44 51°19.361 2°51.926 0.6 41 8.3 100760 91
2002-11-28 08:33:48 51°19.377 2°51.925 0.9 11 8.3 100760 91
2002-11-28 08:33:54 51°19.401 2°51.923 0.9 32 8.3 100760 91
2002-11-28 08:33:58 51°19.417 2°51.92 1.5 69 8.3 100760 91
2002-11-28 08:34:04 51°19.442 2°51.92 1.8 8 8.3 100760 91
2002-11-28 08:34:09 51°19.462 2°51.917 1.7 132 8.3 100760 91
2002-11-28 08:34:12 51°19.474 2°51.917 1.7 342 8.3 100760 91
2002-11-28 08:34:18 51°19.498 2°51.914 1.7 44 8.3 100750 92
2002-11-28 08:34:24 51°19.522 2°51.912 1.8 56 8.3 100750 92
2002-11-28 08:34:28 51°19.538 2°51.91 2.2 77 8.3 100760 92
2002-11-28 08:34:34 51°19.563 2°51.908 2.5 131 8.3 100760 92
2002-11-28 08:34:38 51°19.579 2°51.906 2 359 8.4 100760 91
2002-11-28 08:34:44 51°19.603 2°51.903 1.7 32 8.4 100760 91
2002-11-28 08:34:48 51°19.619 2°51.902 2.6 60 8.4 100760 91
2002-11-28 08:34:54 51°19.643 2°51.899 2.7 52 8.4 100760 91
2002-11-28 08:34:58 51°19.659 2°51.897 2.7 43 8.4 100760 91
2002-11-28 08:35:04 51°19.683 2°51.896 1.4 38 8.4 100760 91
2002-11-28 08:35:08 51°19.7 2°51.894 1.8 128 8.4 100760 91
2002-11-28 08:35:14 51°19.724 2°51.893 1.6 57 8.4 100760 91
2002-11-28 08:35:19 51°19.744 2°51.891 1.3 49 8.5 100760 92
2002-11-28 08:35:24 51°19.764 2°51.888 1.9 52 8.5 100760 92
2002-11-28 08:35:28 51°19.78 2°51.887 1.7 350 8.5 100760 92
2002-11-28 08:35:34 51°19.804 2°51.884 2 41 8.5 100760 92
2002-11-28 08:35:38 51°19.82 2°51.883 1.3 34 8.5 100760 92
2002-11-28 08:35:44 51°19.845 2°51.881 1.8 21 8.5 100760 92
2002-11-28 08:35:48 51°19.861 2°51.88 2.2 23 8.5 100760 92
2002-11-28 08:35:54 51°19.885 2°51.879 2.2 58 8.5 100760 92
2002-11-28 08:35:58 51°19.901 2°51.878 1.5 339 8.5 100760 92
2002-11-28 08:36:04 51°19.926 2°51.877 0.8 128 8.5 100760 92
2002-11-28 08:36:08 51°19.942 2°51.878 1.2 79 8.5 100760 92
2002-11-28 08:36:12 51°19.958 2°51.877 1 26 8.5 100760 92
2002-11-28 08:36:18 51°19.982 2°51.876 0.4 20 8.5 100760 92
2002-11-28 08:36:25 51°20.011 2°51.876 0.3 1 8.5 100760 92
2002-11-28 08:36:28 51°20.023 2°51.876 0.2 8 8.5 100760 91
2002-11-28 08:36:34 51°20.047 2°51.877 0.1 318 8.5 100760 91
2002-11-28 08:36:38 51°20.064 2°51.877   6 8.6 100760 91
2002-11-28 08:36:45 51°20.092 2°51.876 0.2 23 8.6 100760 91
2002-11-28 08:36:48 51°20.104 2°51.877 1 23 8.6 100760 91
2002-11-28 08:36:54 51°20.128 2°51.876 0.6 40 8.6 100760 91
2002-11-28 08:36:58 51°20.144 2°51.876 1 59 8.6 100760 91
2002-11-28 08:37:04 51°20.169 2°51.876 1.2 57 8.6 100760 91
2002-11-28 08:37:09 51°20.189 2°51.875 0.7 336 8.6 100760 91
2002-11-28 08:37:14 51°20.209 2°51.875 0.7 15 8.6 100760 91
2002-11-28 08:37:18 51°20.225 2°51.874 0.8 59 8.6 100760 91
2002-11-28 08:37:24 51°20.249 2°51.874 1.1 52 8.6 100760 91
2002-11-28 08:37:28 51°20.266 2°51.875 0.8 48 8.6 100760 91
2002-11-28 08:37:34 51°20.29 2°51.874 0.8 85 8.6 100760 91
2002-11-28 08:37:38 51°20.306 2°51.874 1.1 90 8.6 100760 91
2002-11-28 08:37:44 51°20.33 2°51.873 1.1 76 8.6 100760 91
2002-11-28 08:37:48 51°20.346 2°51.873 1 81 8.6 100760 91
2002-11-28 08:37:54 51°20.37 2°51.872 1.1 81 8.6 100760 91
2002-11-28 08:37:58 51°20.386 2°51.872 1.1 77 8.6 100760 91
2002-11-28 08:38:04 51°20.411 2°51.871 1.3 80 8.6 100760 91
2002-11-28 08:38:08 51°20.427 2°51.871 1.2 48 8.6 100760 91
2002-11-28 08:38:14 51°20.451 2°51.87 1.4 91 8.6 100760 91
2002-11-28 08:38:19 51°20.471 2°51.87 1 66 8.6 100760 91
2002-11-28 08:38:25 51°20.495 2°51.87 1.2 65 8.6 100760 91
2002-11-28 08:38:29 51°20.511 2°51.869 0.9 51 8.6 100770 91
2002-11-28 08:38:34 51°20.531 2°51.869 1 54 8.6 100770 91
2002-11-28 08:38:38 51°20.547 2°51.869 1.2 33 8.6 100770 91
2002-11-28 08:38:44 51°20.572 2°51.868 1.4 55 8.6 100770 91
2002-11-28 08:38:49 51°20.592 2°51.869 0.7 45 8.6 100770 91
2002-11-28 08:38:53 51°20.608 2°51.869 1.1 28 8.6 100770 91
2002-11-28 08:38:59 51°20.632 2°51.869 1.6 20 8.6 100770 91
2002-11-28 08:39:05 51°20.656 2°51.868 1.4 26 8.6 100770 91
2002-11-28 08:39:09 51°20.672 2°51.868 1.1 3 8.6 100760 91
2002-11-28 08:39:14 51°20.692 2°51.868 1.4 27 8.6 100760 91
2002-11-28 08:39:18 51°20.709 2°51.869 2 356 8.6 100770 91
2002-11-28 08:39:24 51°20.733 2°51.868 1.8 359 8.6 100770 91
2002-11-28 08:39:29 51°20.753 2°51.867 0.8 311 8.6 100770 91
2002-11-28 08:39:34 51°20.774 2°51.867 2.2 19 8.6 100770 91
2002-11-28 08:39:38 51°20.79 2°51.866 2.1 12 8.6 100760 91
2002-11-28 08:39:45 51°20.818 2°51.866 1.7 11 8.6 100760 91
2002-11-28 08:39:49 51°20.835 2°51.865 2.3 27 8.6 100760 91
2002-11-28 08:39:54 51°20.855 2°51.866 2.3 15 8.6 100760 91
2002-11-28 08:39:58 51°20.871 2°51.866 2.6 17 8.6 100770 91
2002-11-28 08:40:05 51°20.899 2°51.865 2.5 22 8.6 100770 91
2002-11-28 08:40:09 51°20.916 2°51.864 2.4 359 8.6 100760 91
2002-11-28 08:40:14 51°20.936 2°51.864 2.3 2 8.6 100760 91
2002-11-28 08:40:19 51°20.956 2°51.864 1.6 345 8.6 100770 91
2002-11-28 08:40:25 51°20.981 2°51.864 2.1 359 8.6 100770 91
2002-11-28 08:40:29 51°20.997 2°51.864 3 360 8.6 100770 91
2002-11-28 08:40:35 51°21.021 2°51.864 3 9 8.6 100770 91
2002-11-28 08:40:39 51°21.037 2°51.864 2.6 15 8.6 100770 91
2002-11-28 08:40:44 51°21.058 2°51.864 2.6 17 8.6 100770 91
2002-11-28 08:40:48 51°21.074 2°51.864 2.9 24 8.6 100770 91
2002-11-28 08:40:55 51°21.102 2°51.865 2.8 16 8.6 100770 91
2002-11-28 08:40:59 51°21.119 2°51.864 2.3 3 8.6 100770 91
2002-11-28 08:41:05 51°21.143 2°51.864 2 24 8.6 100770 91
2002-11-28 08:41:09 51°21.159 2°51.865 2.3 19 8.6 100770 91
2002-11-28 08:41:15 51°21.184 2°51.864 2.4 34 8.6 100770 91
2002-11-28 08:41:19 51°21.2 2°51.865 2.1 28 8.6 100770 91
2002-11-28 08:41:25 51°21.224 2°51.864 1.2 13 8.6 100770 91
2002-11-28 08:41:29 51°21.241 2°51.866 1.5 9 8.6 100770 91
2002-11-28 08:41:34 51°21.261 2°51.865 1.8 9 8.6 100770 91
2002-11-28 08:41:39 51°21.282 2°51.867 1.3 318 8.6 100770 91
2002-11-28 08:41:45 51°21.306 2°51.866 1.6 11 8.6 100770 91
2002-11-28 08:41:48 51°21.319 2°51.867 1.3 20 8.6 100770 91
2002-11-28 08:41:54 51°21.343 2°51.866 0.8 2 8.6 100770 91
2002-11-28 08:41:59 51°21.364 2°51.866 1.9 25 8.6 100770 91
2002-11-28 08:42:04 51°21.384 2°51.866 1.4 1 8.6 100770 91
2002-11-28 08:42:08 51°21.401 2°51.866 1.2 72 8.6 100770 91
2002-11-28 08:42:14 51°21.425 2°51.867 1.4 65 8.6 100770 91
2002-11-28 08:42:18 51°21.441 2°51.867 0.8 96 8.6 100770 91
2002-11-28 08:42:24 51°21.466 2°51.868 0.4 54 8.6 100770 91
2002-11-28 08:42:28 51°21.482 2°51.868 0.8 352 8.6 100770 91
2002-11-28 08:42:34 51°21.506 2°51.869 1.5 129 8.6 100770 91
2002-11-28 08:42:38 51°21.522 2°51.869 1.4 121 8.6 100770 91
2002-11-28 08:42:44 51°21.547 2°51.869 1.7 43 8.6 100770 91
2002-11-28 08:42:48 51°21.563 2°51.869 1.8 15 8.6 100770 91
2002-11-28 08:42:54 51°21.588 2°51.87 2.2 53 8.6 100770 91
2002-11-28 08:42:58 51°21.604 2°51.87 2.5 14 8.6 100760 91
2002-11-28 08:43:04 51°21.628 2°51.87 2.3 19 8.6 100760 91
2002-11-28 08:43:08 51°21.645 2°51.871 2.4 45 8.6 100770 91
2002-11-28 08:43:14 51°21.669 2°51.872 1.5 45 8.6 100770 91
2002-11-28 08:43:18 51°21.685 2°51.872 1.7 67 8.6 100780 91
2002-11-28 08:43:24 51°21.71 2°51.873 1.8 8 8.6 100780 91
2002-11-28 08:43:28 51°21.726 2°51.873 1.9 64 8.6 100770 91
2002-11-28 08:43:34 51°21.751 2°51.874 2.2 69 8.6 100770 91
2002-11-28 08:43:38 51°21.767 2°51.875 1.6 31 8.6 100770 91
2002-11-28 08:43:44 51°21.792 2°51.876 1.7 45 8.6 100770 91
2002-11-28 08:43:49 51°21.812 2°51.879 2.4 73 8.6 100770 91
2002-11-28 08:43:54 51°21.833 2°51.882 2.2 76 8.6 100770 91
2002-11-28 08:43:59 51°21.853 2°51.887 2.4 79 8.6 100770 91
2002-11-28 08:44:05 51°21.878 2°51.891 3 84 8.6 100770 91
2002-11-28 08:44:09 51°21.894 2°51.895 3 87 8.6 100770 91
2002-11-28 08:44:15 51°21.918 2°51.903 3.2 92 8.6 100770 91
2002-11-28 08:44:19 51°21.935 2°51.91 3.1 107 8.7 100770 91
2002-11-28 08:44:25 51°21.958 2°51.923 3 84 8.7 100770 91
2002-11-28 08:44:29 51°21.974 2°51.933 3.4 104 8.6 100770 90
2002-11-28 08:44:35 51°21.997 2°51.947 3.7 119 8.6 100770 90
2002-11-28 08:44:38 51°22.008 2°51.955 3.2 120 8.6 100770 90
2002-11-28 08:44:45 51°22.034 2°51.975 3.4 137 8.6 100770 90
2002-11-28 08:44:48 51°22.046 2°51.983 3.5 128 8.6 100770 91
2002-11-28 08:44:54 51°22.068 2°52 3.8 128 8.6 100770 91
2002-11-28 08:44:58 51°22.083 2°52.013 4.2 122 8.7 100770 90
2002-11-28 08:45:04 51°22.104 2°52.033 4.7 142 8.7 100770 90
2002-11-28 08:45:08 51°22.118 2°52.047 4.5 145 8.6 100770 90
2002-11-28 08:45:14 51°22.138 2°52.069 4.8 141 8.6 100770 90
2002-11-28 08:45:19 51°22.154 2°52.089 5.7 148 8.6 100770 90
2002-11-28 08:45:25 51°22.173 2°52.116 5.7 153 8.6 100770 90
2002-11-28 08:45:29 51°22.185 2°52.134 6.1 154 8.7 100770 91
2002-11-28 08:45:34 51°22.198 2°52.159 6.8 151 8.7 100770 91
2002-11-28 08:45:38 51°22.21 2°52.178 7.7 163 8.7 100770 91
2002-11-28 08:45:45 51°22.228 2°52.213 7.8 154 8.7 100770 91
2002-11-28 08:45:48 51°22.236 2°52.229 8.1 151 8.7 100760 91
2002-11-28 08:45:55 51°22.252 2°52.267 7.6 154 8.7 100760 91
2002-11-28 08:45:59 51°22.261 2°52.289 8.9 158 8.7 100760 91
2002-11-28 08:46:05 51°22.273 2°52.323 8.4 154 8.7 100760 91
2002-11-28 08:46:09 51°22.282 2°52.346 9.7 152 8.7 100760 91
2002-11-28 08:46:14 51°22.293 2°52.375 8.1 155 8.7 100760 91
2002-11-28 08:46:18 51°22.301 2°52.398 7.8 158 8.7 100760 91
2002-11-28 08:46:25 51°22.315 2°52.438 8.4 155 8.7 100760 91
2002-11-28 08:46:29 51°22.324 2°52.461 7.5 152 8.7 100750 91
2002-11-28 08:46:34 51°22.335 2°52.489 7.8 163 8.7 100750 91
2002-11-28 08:46:38 51°22.344 2°52.511 8.3 156 8.7 100760 91
2002-11-28 08:46:45 51°22.359 2°52.551 7.7 161 8.7 100760 91
2002-11-28 08:46:49 51°22.369 2°52.574 7.7 151 8.7 100760 90
2002-11-28 08:46:54 51°22.379 2°52.601 8.3 156 8.7 100760 90
2002-11-28 08:46:59 51°22.39 2°52.629 9.1 156 8.7 100760 91
2002-11-28 08:47:05 51°22.404 2°52.662 8.4 157 8.7 100760 91
2002-11-28 08:47:08 51°22.411 2°52.678 7.5 148 8.7 100750 91
2002-11-28 08:47:14 51°22.424 2°52.711 8.5 161 8.7 100750 91
2002-11-28 08:47:18 51°22.433 2°52.733 8.3 157 8.7 100760 91
2002-11-28 08:47:25 51°22.449 2°52.772 9.2 150 8.7 100760 91
2002-11-28 08:47:29 51°22.459 2°52.793 8.3 149 8.7 100760 91
2002-11-28 08:47:34 51°22.47 2°52.82 7.7 146 8.7 100760 91
2002-11-28 08:47:38 51°22.48 2°52.842 7 166 8.7 100760 91
2002-11-28 08:47:44 51°22.495 2°52.874 7.6 147 8.7 100760 91
2002-11-28 08:47:48 51°22.505 2°52.896 7.6 142 8.7 100750 91
2002-11-28 08:47:54 51°22.519 2°52.929 7.4 151 8.7 100750 91
2002-11-28 08:47:59 51°22.531 2°52.955 8.4 145 8.7 100770 91
2002-11-28 08:48:05 51°22.545 2°52.988 8.1 140 8.7 100770 91
2002-11-28 08:48:09 51°22.555 2°53.009 7.1 149 8.7 100760 91
2002-11-28 08:48:14 51°22.567 2°53.036 7.4 150 8.7 100760 91
2002-11-28 08:48:18 51°22.577 2°53.058 7.7 149 8.7 100760 91
2002-11-28 08:48:25 51°22.594 2°53.095 8.5 147 8.7 100760 91
2002-11-28 08:48:29 51°22.603 2°53.116 8.2 146 8.7 100770 91
2002-11-28 08:48:34 51°22.615 2°53.143 7.8 160 8.7 100770 91
2002-11-28 08:48:39 51°22.627 2°53.17 7.4 155 8.7 100770 91
2002-11-28 08:48:45 51°22.642 2°53.202 8.5 152 8.7 100770 91
2002-11-28 08:48:49 51°22.651 2°53.224 6.9 143 8.8 100770 91
2002-11-28 08:48:54 51°22.663 2°53.251 8.5 135 8.8 100770 91
2002-11-28 08:48:58 51°22.672 2°53.273 6.9 142 8.8 100770 91
2002-11-28 08:49:05 51°22.689 2°53.311 7.4 154 8.8 100770 91
2002-11-28 08:49:08 51°22.696 2°53.327 8 154 8.8 100770 91
2002-11-28 08:49:14 51°22.71 2°53.359 8.2 149 8.8 100770 91
2002-11-28 08:49:18 51°22.72 2°53.38 8.6 148 8.8 100770 91
2002-11-28 08:49:24 51°22.734 2°53.413 7.2 135 8.8 100770 91
2002-11-28 08:49:29 51°22.746 2°53.439 6.6 147 8.8 100770 91
2002-11-28 08:49:34 51°22.758 2°53.466 6.8 138 8.8 100770 91
2002-11-28 08:49:38 51°22.769 2°53.487 7.9 146 8.8 100770 91
2002-11-28 08:49:44 51°22.783 2°53.519 6.4 161 8.8 100770 91
2002-11-28 08:49:49 51°22.796 2°53.546 7.8 149 8.8 100770 91
2002-11-28 08:49:54 51°22.809 2°53.572 6.5 141 8.8 100770 91
2002-11-28 08:49:59 51°22.821 2°53.599 6 154 8.8 100770 91
2002-11-28 08:50:04 51°22.834 2°53.626 7.4 165 8.8 100770 91
2002-11-28 08:50:09 51°22.846 2°53.653 7.5 155 8.8 100770 91
2002-11-28 08:50:14 51°22.858 2°53.68 6.2 159 8.8 100770 91
2002-11-28 08:50:19 51°22.87 2°53.706 7.1 145 8.8 100770 91
2002-11-28 08:50:25 51°22.886 2°53.739 6.6 158 8.8 100770 91
2002-11-28 08:50:29 51°22.896 2°53.759 7.9 150 8.8 100770 91
2002-11-28 08:50:35 51°22.91 2°53.792 7.1 157 8.8 100770 91
2002-11-28 08:50:39 51°22.921 2°53.813 7.2 153 8.9 100770 91
2002-11-28 08:50:44 51°22.933 2°53.84 7.5 155 8.9 100770 91
2002-11-28 08:50:49 51°22.946 2°53.865 8.8 149 8.9 100770 91
2002-11-28 08:50:54 51°22.958 2°53.892 8 153 8.9 100770 91
2002-11-28 08:50:58 51°22.969 2°53.913 8.5 146 8.8 100770 91
2002-11-28 08:51:05 51°22.986 2°53.951 8 150 8.8 100770 91
2002-11-28 08:51:09 51°22.997 2°53.972 8.1 148 8.9 100770 91
2002-11-28 08:51:14 51°23.009 2°54 6.2 150 8.9 100770 91
2002-11-28 08:51:18 51°23.02 2°54.021 7.2 153 8.8 100770 90
2002-11-28 08:51:25 51°23.038 2°54.058 6.5 138 8.8 100770 90
2002-11-28 08:51:29 51°23.048 2°54.079 8 143 8.8 100770 90
2002-11-28 08:51:35 51°23.063 2°54.111 8.3 141 8.8 100770 90
2002-11-28 08:51:39 51°23.073 2°54.132 7.4 156 8.8 100770 90
2002-11-28 08:51:45 51°23.088 2°54.164 7.7 161 8.8 100770 90
2002-11-28 08:51:49 51°23.097 2°54.185 8.7 153 8.9 100770 91
2002-11-28 08:51:55 51°23.112 2°54.216 8.3 152 8.9 100770 91
2002-11-28 08:51:59 51°23.122 2°54.238 7.4 151 8.9 100770 91
2002-11-28 08:52:05 51°23.137 2°54.27 7.4 155 8.9 100770 91
2002-11-28 08:52:09 51°23.148 2°54.29 4.4 153 8.9 100770 91
2002-11-28 08:52:14 51°23.16 2°54.316 6.4 159 8.9 100770 91
2002-11-28 08:52:18 51°23.171 2°54.337 6.8 156 8.9 100770 90
2002-11-28 08:52:25 51°23.189 2°54.373 6.5 156 8.9 100770 90
2002-11-28 08:52:29 51°23.199 2°54.393 6.6 151 8.9 100770 90
2002-11-28 08:52:35 51°23.214 2°54.424 6.9 167 8.9 100770 90
2002-11-28 08:52:38 51°23.222 2°54.44 7.3 174 8.9 100770 90
2002-11-28 08:52:44 51°23.237 2°54.471 7.1 160 8.9 100770 90
2002-11-28 08:52:48 51°23.247 2°54.492 8.5 157 8.9 100770 90
2002-11-28 08:52:54 51°23.262 2°54.523 8.3 160 8.9 100770 90
2002-11-28 08:52:58 51°23.272 2°54.545 7.2 174 8.9 100780 91
2002-11-28 08:53:04 51°23.287 2°54.576 7.6 169 8.9 100780 91
2002-11-28 08:53:08 51°23.297 2°54.597 6.5 160 8.9 100770 91
2002-11-28 08:53:14 51°23.311 2°54.628 7.3 169 8.9 100770 91
2002-11-28 08:53:18 51°23.321 2°54.649 7.4 172 8.9 100770 91
2002-11-28 08:53:24 51°23.337 2°54.681 7.1 159 8.9 100770 91
2002-11-28 08:53:28 51°23.346 2°54.702 7 162 8.9 100770 91
2002-11-28 08:53:34 51°23.361 2°54.734 7 167 8.9 100770 91
2002-11-28 08:53:38 51°23.371 2°54.755 7 165 8.9 100770 91
2002-11-28 08:53:44 51°23.386 2°54.786 7.2 174 8.9 100770 91
2002-11-28 08:53:48 51°23.396 2°54.806 7.4 162 8.9 100770 91
2002-11-28 08:53:54 51°23.411 2°54.838 8.2 164 8.9 100770 91
2002-11-28 08:53:59 51°23.424 2°54.864 7.4 151 8.9 100770 91
2002-11-28 08:54:04 51°23.436 2°54.891 6.8 166 8.9 100770 91
2002-11-28 08:54:08 51°23.446 2°54.911 7.6 153 8.9 100770 91
2002-11-28 08:54:14 51°23.46 2°54.942 7.1 157 8.9 100770 91
2002-11-28 08:54:18 51°23.47 2°54.963 7.9 164 8.9 100770 91
2002-11-28 08:54:24 51°23.486 2°54.995 6.4 158 8.9 100770 91
2002-11-28 08:54:28 51°23.496 2°55.015 7.5 150 8.9 100770 90
2002-11-28 08:54:34 51°23.51 2°55.046 7.7 158 8.9 100770 90
2002-11-28 08:54:39 51°23.522 2°55.073 6.7 166 8.9 100770 90
2002-11-28 08:54:44 51°23.536 2°55.099 6.9 155 8.9 100770 90
2002-11-28 08:54:48 51°23.545 2°55.12 6.7 152 8.9 100770 90
2002-11-28 08:54:54 51°23.56 2°55.15 8 149 8.9 100770 90
2002-11-28 08:54:58 51°23.571 2°55.173 6.1 153 8.9 100780 90
2002-11-28 08:55:04 51°23.588 2°55.201 7.4 153 8.9 100780 90
2002-11-28 08:55:08 51°23.598 2°55.222 5.8 154 8.9 100770 90
2002-11-28 08:55:14 51°23.615 2°55.25 6.8 163 8.9 100770 90
2002-11-28 08:55:18 51°23.626 2°55.269 6.8 155 8.9 100770 90
2002-11-28 08:55:24 51°23.643 2°55.298 6.5 153 8.9 100770 90
2002-11-28 08:55:28 51°23.655 2°55.316 6.4 152 8.9 100780 90
2002-11-28 08:55:34 51°23.672 2°55.344 6.7 145 8.9 100780 90
2002-11-28 08:55:39 51°23.687 2°55.366 5.2 149 8.9 100780 90
2002-11-28 08:55:44 51°23.703 2°55.388 6.2 143 8.9 100780 90
2002-11-28 08:55:48 51°23.715 2°55.405 6.3 137 8.9 100780 90
2002-11-28 08:55:54 51°23.734 2°55.43 5.7 137 8.9 100780 90
2002-11-28 08:55:59 51°23.749 2°55.451 5.9 135 8.9 100780 90
2002-11-28 08:56:04 51°23.765 2°55.472 5.5 134 8.9 100780 90
2002-11-28 08:56:09 51°23.782 2°55.493 5.3 140 8.8 100780 90
2002-11-28 08:56:13 51°23.795 2°55.509 4.8 127 8.8 100780 90
2002-11-28 08:56:19 51°23.815 2°55.531 3.9 130 8.9 100780 90
2002-11-28 08:56:25 51°23.836 2°55.551 3.5 128 8.9 100780 90
2002-11-28 08:56:29 51°23.85 2°55.566 3.2 117 8.8 100780 90
2002-11-28 08:56:35 51°23.872 2°55.583 3 112 8.8 100780 90
2002-11-28 08:56:38 51°23.883 2°55.592 3 109 8.8 100780 90
2002-11-28 08:56:44 51°23.906 2°55.606 2.5 110 8.8 100780 90
2002-11-28 08:56:48 51°23.921 2°55.616 2.2 92 8.8 100790 90
2002-11-28 08:56:55 51°23.948 2°55.63 2.2 109 8.8 100790 90
2002-11-28 08:56:59 51°23.964 2°55.639 2.1 147 8.9 100780 91
2002-11-28 08:57:04 51°23.983 2°55.647 1.6 121 8.9 100780 91
2002-11-28 08:57:09 51°24.003 2°55.657 2 176 8.9 100790 91
2002-11-28 08:57:15 51°24.027 2°55.666 1.9 142 8.9 100790 91
2002-11-28 08:57:19 51°24.043 2°55.673 2.1 100 8.9 100790 91
2002-11-28 08:57:24 51°24.063 2°55.681 2.7 119 8.9 100790 91
2002-11-28 08:57:28 51°24.079 2°55.687 1.3 95 8.9 100790 91
2002-11-28 08:57:34 51°24.103 2°55.694 2.4 102 8.9 100790 91
2002-11-28 08:57:38 51°24.119 2°55.698 1.7 85 8.9 100790 91
2002-11-28 08:57:45 51°24.147 2°55.705 2 91 8.9 100790 91
2002-11-28 08:57:48 51°24.159 2°55.706 1.5 77 8.9 100790 91
2002-11-28 08:57:54 51°24.183 2°55.71 1.9 90 8.9 100790 91
2002-11-28 08:57:58 51°24.199 2°55.713 0.8 141 8.9 100790 90
2002-11-28 08:58:04 51°24.224 2°55.717 1.5 112 8.9 100790 90
2002-11-28 08:58:08 51°24.24 2°55.72 0.9 138 8.9 100790 90
2002-11-28 08:58:14 51°24.265 2°55.725 0.9 13 8.9 100790 90
2002-11-28 08:58:19 51°24.285 2°55.727 0.5 33 8.9 100790 90
2002-11-28 08:58:24 51°24.305 2°55.731 0.3 335 8.9 100790 90
2002-11-28 08:58:28 51°24.322 2°55.734 0.9 326 8.8 100790 90
2002-11-28 08:58:34 51°24.346 2°55.738 0.4 329 8.8 100790 90
2002-11-28 08:58:38 51°24.362 2°55.741 0.7 237 8.9 100790 90
2002-11-28 08:58:44 51°24.387 2°55.746 0.7 356 8.9 100790 90
2002-11-28 08:58:48 51°24.403 2°55.749 0.2 355 8.9 100790 90
2002-11-28 08:58:54 51°24.428 2°55.753 0.1 354 8.9 100790 90
2002-11-28 08:58:58 51°24.444 2°55.755 0.2 87 8.9 100790 90
2002-11-28 08:59:04 51°24.468 2°55.758 0.4 359 8.9 100790 90
2002-11-28 08:59:08 51°24.484 2°55.761 0.5 73 8.9 100790 91
2002-11-28 08:59:14 51°24.509 2°55.764 0.3 54 8.9 100790 91
2002-11-28 08:59:19 51°24.529 2°55.766 0.1 47 8.9 100790 91
2002-11-28 08:59:24 51°24.55 2°55.769 0.1 321 8.9 100790 91
2002-11-28 08:59:28 51°24.566 2°55.771 0.5 79 8.9 100790 91
2002-11-28 08:59:34 51°24.59 2°55.775 1.3 64 8.9 100790 91
2002-11-28 08:59:38 51°24.606 2°55.777 1.4 78 8.9 100790 91
2002-11-28 08:59:44 51°24.631 2°55.782 1.6 61 8.9 100790 91
2002-11-28 08:59:48 51°24.647 2°55.783 1.9 83 8.9 100790 91
2002-11-28 08:59:54 51°24.672 2°55.788 1.6 48 8.9 100790 91
2002-11-28 08:59:58 51°24.688 2°55.789 1.3 81 8.9 100790 91
2002-11-28 09:00:04 51°24.712 2°55.794 0.8 27 8.9 100790 91
2002-11-28 09:00:08 51°24.729 2°55.794 0.6 13 8.9 100790 91
2002-11-28 09:00:14 51°24.753 2°55.797 1.4 333 8.9 100790 91
2002-11-28 09:00:18 51°24.77 2°55.797 2 11 8.9 100790 91
2002-11-28 09:00:25 51°24.798 2°55.801 1.8 349 8.9 100790 91
2002-11-28 09:00:28 51°24.81 2°55.801 2.3 8 8.9 100790 91
2002-11-28 09:00:34 51°24.835 2°55.803 1.9 4 8.9 100790 91
2002-11-28 09:00:39 51°24.855 2°55.803 2 24 8.9 100790 91
2002-11-28 09:00:44 51°24.876 2°55.806 2.2 9 8.9 100790 91
2002-11-28 09:00:48 51°24.892 2°55.806 1.7 43 8.9 100790 90
2002-11-28 09:00:54 51°24.916 2°55.808 2 9 8.9 100790 90
2002-11-28 09:00:59 51°24.937 2°55.81 0.9 311 8.9 100790 90
2002-11-28 09:01:04 51°24.957 2°55.81 0.8 9 8.9 100790 90
2002-11-28 09:01:08 51°24.974 2°55.813 0.7 330 8.9 100790 90
2002-11-28 09:01:12 51°24.99 2°55.813 0.5 348 8.9 100790 90
2002-11-28 09:01:18 51°25.014 2°55.817 1.3 7 8.9 100790 90
2002-11-28 09:01:24 51°25.039 2°55.817 1.4 2 8.9 100790 90
2002-11-28 09:01:28 51°25.056 2°55.819 1.8 3 8.9 100790 90
2002-11-28 09:01:34 51°25.08 2°55.82 2.8 35 8.9 100790 90
2002-11-28 09:01:39 51°25.101 2°55.823 2.5 15 8.9 100790 90
2002-11-28 09:01:45 51°25.125 2°55.824 2.3 53 8.9 100790 90
2002-11-28 09:01:48 51°25.137 2°55.827 2 60 8.9 100790 90
2002-11-28 09:01:52 51°25.154 2°55.828 1.9 82 8.9 100790 90
2002-11-28 09:01:58 51°25.178 2°55.83 1.9 357 8.9 100800 90
2002-11-28 09:02:04 51°25.203 2°55.832 1 26 8.9 100800 90
2002-11-28 09:02:08 51°25.219 2°55.835 1.6 39 8.9 100800 90
2002-11-28 09:02:14 51°25.243 2°55.837 1.2 72 8.9 100800 90
2002-11-28 09:02:19 51°25.264 2°55.838 0.9 35 8.9 100790 90
2002-11-28 09:02:24 51°25.284 2°55.84 0.7 349 8.9 100790 90
2002-11-28 09:02:29 51°25.305 2°55.843 1.8 8 8.9 100790 90
2002-11-28 09:02:34 51°25.325 2°55.844 1.6 25 8.9 100790 90
2002-11-28 09:02:39 51°25.346 2°55.845 1.2 30 8.9 100790 90
2002-11-28 09:02:44 51°25.367 2°55.847 1.6 45 8.9 100790 90
2002-11-28 09:02:48 51°25.383 2°55.848 1.1 36 8.9 100790 90
2002-11-28 09:02:54 51°25.408 2°55.851 0.8 36 8.9 100790 90
2002-11-28 09:02:58 51°25.424 2°55.853 1.8 42 8.9 100790 90
2002-11-28 09:03:04 51°25.448 2°55.855 1.8 11 8.9 100790 90
2002-11-28 09:03:08 51°25.464 2°55.856 2.4 21 8.9 100790 90
2002-11-28 09:03:14 51°25.489 2°55.858 1.5 60 8.9 100790 90
2002-11-28 09:03:18 51°25.506 2°55.859 1 61 8.9 100790 90
2002-11-28 09:03:24 51°25.53 2°55.862 1.1 333 8.9 100790 90
2002-11-28 09:03:28 51°25.547 2°55.862 0.9 5 8.9 100790 90
2002-11-28 09:03:34 51°25.571 2°55.865 1 33 8.9 100790 90
2002-11-28 09:03:38 51°25.587 2°55.866 1.8 59 8.9 100790 90
2002-11-28 09:03:44 51°25.612 2°55.869 1.3 84 8.9 100790 90
2002-11-28 09:03:48 51°25.628 2°55.871 1.5 39 8.9 100790 90
2002-11-28 09:03:52 51°25.644 2°55.872 1.6 56 8.9 100790 90
2002-11-28 09:03:59 51°25.673 2°55.876 1.2 56 8.9 100790 90
2002-11-28 09:04:04 51°25.694 2°55.877 0.8 34 8.9 100790 90
2002-11-28 09:04:08 51°25.71 2°55.879 0.8 13 8.9 100790 90
2002-11-28 09:04:14 51°25.734 2°55.883 1.7 344 8.9 100790 90
2002-11-28 09:04:19 51°25.755 2°55.882 2.1 25 8.9 100790 90
2002-11-28 09:04:24 51°25.776 2°55.885 1.3 8 8.9 100790 90
2002-11-28 09:04:28 51°25.793 2°55.886 1.5 6 8.9 100790 90
2002-11-28 09:04:35 51°25.822 2°55.889 1.2 20 8.9 100790 90
2002-11-28 09:04:38 51°25.834 2°55.889 1.1 7 9 100780 90
2002-11-28 09:04:44 51°25.858 2°55.89 0.8 69 9 100780 90
2002-11-28 09:04:48 51°25.875 2°55.893 1.1 32 9 100790 90
2002-11-28 09:04:54 51°25.899 2°55.895 1.2 65 9 100790 90
2002-11-28 09:04:58 51°25.915 2°55.897 0.6 344 8.9 100780 90
2002-11-28 09:05:05 51°25.944 2°55.899 0.9 105 8.9 100780 90
2002-11-28 09:05:08 51°25.956 2°55.901 1.5 65 9 100790 90
2002-11-28 09:05:14 51°25.98 2°55.904 1.4 78 9 100790 90
2002-11-28 09:05:18 51°25.997 2°55.907 1.5 58 9 100790 90
2002-11-28 09:05:23 51°26.017 2°55.908 1.7 80 9 100790 90
2002-11-28 09:05:29 51°26.041 2°55.912 1.6 79 9 100790 90
2002-11-28 09:05:34 51°26.062 2°55.914 1.7 59 9 100790 90
2002-11-28 09:05:39 51°26.082 2°55.915 1.4 93 8.9 100780 90
2002-11-28 09:05:44 51°26.103 2°55.918 1.7 71 8.9 100780 90
2002-11-28 09:05:49 51°26.123 2°55.919 1.6 78 9 100780 90
2002-11-28 09:05:52 51°26.136 2°55.921 1.1 101 9 100780 90
2002-11-28 09:05:59 51°26.164 2°55.922 0.4 92 9 100780 90
2002-11-28 09:06:05 51°26.189 2°55.924 0.3 106 9 100780 90
2002-11-28 09:06:09 51°26.205 2°55.925 0.6 83 9 100780 90
2002-11-28 09:06:14 51°26.226 2°55.928 1.4 158 9 100780 90
2002-11-28 09:06:19 51°26.246 2°55.929 0.8 60 9 100790 90
2002-11-28 09:06:24 51°26.267 2°55.932 0.6 41 9 100790 90
2002-11-28 09:06:28 51°26.283 2°55.933 0.4 30 9 100790 90
2002-11-28 09:06:34 51°26.307 2°55.936 0.3 332 9 100790 90
2002-11-28 09:06:39 51°26.328 2°55.937 0.5 330 9 100780 90
2002-11-28 09:06:44 51°26.348 2°55.941 0.4 311 9 100780 90
2002-11-28 09:06:48 51°26.364 2°55.941 0.3 340 9 100780 90
2002-11-28 09:06:52 51°26.38 2°55.943 0.2 341 9 100780 90
2002-11-28 09:06:59 51°26.409 2°55.946 0.8 1 9 100780 90
2002-11-28 09:07:05 51°26.432 2°55.949 1.2 17 9 100780 90
2002-11-28 09:07:09 51°26.448 2°55.951 1.9 9 9 100780 90
2002-11-28 09:07:14 51°26.469 2°55.955 1.9 8 9 100780 90
2002-11-28 09:07:19 51°26.489 2°55.955 1.6 23 9 100770 90
2002-11-28 09:07:24 51°26.509 2°55.959 1.8 353 9 100770 90
2002-11-28 09:07:28 51°26.525 2°55.96 1.4 6 9 100780 90
2002-11-28 09:07:34 51°26.549 2°55.963 1.4 16 9 100780 90
2002-11-28 09:07:38 51°26.565 2°55.965 1.6 16 9 100780 90
2002-11-28 09:07:45 51°26.594 2°55.966 1.7 1 9 100780 90
2002-11-28 09:07:48 51°26.606 2°55.967 2 2 9 100790 90
2002-11-28 09:07:55 51°26.635 2°55.971 2 335 9 100790 90
2002-11-28 09:07:59 51°26.651 2°55.972 1.3 358 9 100780 90
2002-11-28 09:08:05 51°26.675 2°55.974 1.3 10 9 100780 90
2002-11-28 09:08:08 51°26.688 2°55.975 1.9 3 9 100780 90
2002-11-28 09:08:14 51°26.712 2°55.977 1.5 11 9 100780 90
2002-11-28 09:08:19 51°26.732 2°55.98 2.2 358 9 100780 90
2002-11-28 09:08:23 51°26.748 2°55.98 1.6 29 9 100780 90
2002-11-28 09:08:28 51°26.769 2°55.984 2 7 9 100780 90
2002-11-28 09:08:34 51°26.793 2°55.986 2.2 47 9 100780 90
2002-11-28 09:08:39 51°26.813 2°55.989 1.7 65 9 100780 90
2002-11-28 09:08:45 51°26.838 2°55.992 1.7 320 9 100780 90
2002-11-28 09:08:48 51°26.85 2°55.994 0.9 350 9 100780 90
2002-11-28 09:08:52 51°26.866 2°55.995 1.1 56 9 100780 90
2002-11-28 09:08:58 51°26.89 2°56 1.8 20 9 100790 90
2002-11-28 09:09:04 51°26.914 2°56.003 1.3 4 9 100790 90
2002-11-28 09:09:08 51°26.93 2°56.005 1.2 358 9 100780 90
2002-11-28 09:09:14 51°26.955 2°56.007 1.3 24 9 100780 90
2002-11-28 09:09:18 51°26.971 2°56.01 1.6 3 9 100790 90
2002-11-28 09:09:24 51°26.995 2°56.012 1.1 343 9 100790 90
2002-11-28 09:09:28 51°27.011 2°56.015 0.7 311 9 100790 90
2002-11-28 09:09:32 51°27.028 2°56.017 1.5 269 9 100790 90
2002-11-28 09:09:39 51°27.056 2°56.019 0.9 335 9.1 100790 90
2002-11-28 09:09:45 51°27.081 2°56.022 0.7 356 9.1 100790 90
2002-11-28 09:09:48 51°27.093 2°56.024 1 17 9.1 100780 90
2002-11-28 09:09:54 51°27.117 2°56.027 0.5 10 9.1 100780 90
2002-11-28 09:09:58 51°27.134 2°56.028 0.4 351 9.1 100780 90
2002-11-28 09:10:04 51°27.158 2°56.033 0.2 95 9.1 100780 90
2002-11-28 09:10:08 51°27.174 2°56.034 0.5 24 9.1 100790 90
2002-11-28 09:10:14 51°27.199 2°56.038 0.5 53 9.1 100790 90
2002-11-28 09:10:18 51°27.215 2°56.04 1.1   9.1 100780 90
2002-11-28 09:10:24 51°27.24 2°56.043 0.7 353 9.1 100780 90
2002-11-28 09:10:28 51°27.256 2°56.045 0.8 14 9.1 100780 90
2002-11-28 09:10:34 51°27.281 2°56.048 0.5 23 9.1 100780 90
2002-11-28 09:10:39 51°27.301 2°56.049 0.5 8 9.1 100780 90
2002-11-28 09:10:44 51°27.322 2°56.051 0.8 15 9.1 100780 90
2002-11-28 09:10:48 51°27.338 2°56.053 0.9 43 9.1 100780 90
2002-11-28 09:10:54 51°27.362 2°56.057 0.9 9 9.1 100780 90
2002-11-28 09:10:59 51°27.381 2°56.058 1.5 34 9.1 100790 90
2002-11-28 09:11:04 51°27.398 2°56.061 2.7 13 9.1 100790 90
2002-11-28 09:11:08 51°27.411 2°56.062 2.9 21 9.1 100790 90
2002-11-28 09:11:14 51°27.43 2°56.062 4 5 9.1 100790 90
2002-11-28 09:11:18 51°27.441 2°56.06 5.6 16 9.1 100790 90
2002-11-28 09:11:24 51°27.458 2°56.057 5.1 19 9.1 100790 90
2002-11-28 09:11:28 51°27.469 2°56.055 5.2 28 9.1 100790 90
2002-11-28 09:11:34 51°27.486 2°56.053 4.9 24 9.1 100790 90
2002-11-28 09:11:39 51°27.498 2°56.051 2.8 322 9.1 100780 90
2002-11-28 09:11:45 51°27.511 2°56.044 2.1 330 9.1 100780 90
2002-11-28 09:11:49 51°27.519 2°56.039 4.8 334 9.1 100780 90
2002-11-28 09:11:54 51°27.527 2°56.03 3 330 9.1 100780 90
2002-11-28 09:11:59 51°27.535 2°56.021 2.2 310 9.1 100790 90
2002-11-28 09:12:04 51°27.54 2°56.011 7.3 296 9.1 100790 90
2002-11-28 09:12:08 51°27.544 2°56.003 7.6 327 9.1 100780 90
2002-11-28 09:12:14 51°27.549 2°55.99 8.6 298 9.1 100780 90
2002-11-28 09:12:18 51°27.551 2°55.982 11 295 9.1 100790 90
2002-11-28 09:12:24 51°27.553 2°55.969 10.4 292 9.1 100790 90
2002-11-28 09:12:28 51°27.554 2°55.961 11.4 288 9.2 100780 90
2002-11-28 09:12:35 51°27.553 2°55.947 10.9 273 9.2 100780 90
2002-11-28 09:12:39 51°27.552 2°55.94 11.4 267 9.2 100770 90
2002-11-28 09:12:44 51°27.551 2°55.932 12.1 262 9.2 100770 90
2002-11-28 09:12:48 51°27.549 2°55.926 12.1 257 9.2 100770 90
2002-11-28 09:12:54 51°27.546 2°55.917 12.2 254 9.2 100770 90
2002-11-28 09:12:59 51°27.542 2°55.912 11.3 252 9.2 100760 90
2002-11-28 09:13:05 51°27.537 2°55.906 11.3 249 9.2 100760 90
2002-11-28 09:13:09 51°27.534 2°55.904 11.6 239 9.2 100740 90
2002-11-28 09:13:15 51°27.528 2°55.902 10.6 231 9.2 100740 90
2002-11-28 09:13:19 51°27.524 2°55.902 10.7 226 9.2 100740 90
2002-11-28 09:13:24 51°27.52 2°55.902 10.3 221 9.2 100740 90
2002-11-28 09:13:29 51°27.515 2°55.904 9.9 220 9.2 100740 90
2002-11-28 09:13:33 51°27.51 2°55.907 12 212 9.2 100740 90
2002-11-28 09:13:39 51°27.504 2°55.911 10.7 215 9.2 100750 90
2002-11-28 09:13:45 51°27.496 2°55.917 10.1 217 9.2 100750 90
2002-11-28 09:13:49 51°27.491 2°55.92 11.4 220 9.2 100760 90
2002-11-28 09:13:55 51°27.484 2°55.926 11.8 221 9.2 100760 90
2002-11-28 09:13:59 51°27.478 2°55.93 13.2 220 9.2 100760 90
2002-11-28 09:14:05 51°27.47 2°55.935 12.5 220 9.2 100760 90
2002-11-28 09:14:09 51°27.464 2°55.938 12.2 223 9.2 100750 90
2002-11-28 09:14:14 51°27.457 2°55.941 12.2 226 9.2 100750 90
2002-11-28 09:14:19 51°27.449 2°55.944 11.2 226 9.2 100760 90
2002-11-28 09:14:25 51°27.44 2°55.948 12.5 220 9.2 100760 90
2002-11-28 09:14:29 51°27.434 2°55.95 11.2 222 9.2 100760 90
2002-11-28 09:14:35 51°27.425 2°55.956 12.9 216 9.2 100760 90
2002-11-28 09:14:39 51°27.418 2°55.959 13.2 209 9.2 100760 90
2002-11-28 09:14:45 51°27.41 2°55.967 12.4 207 9.2 100760 90
2002-11-28 09:14:48 51°27.405 2°55.97 10.4 201 9.2 100750 90
2002-11-28 09:14:54 51°27.397 2°55.98 9.6 198 9.2 100750 90
2002-11-28 09:14:58 51°27.393 2°55.988 10.2 196 9.2 100750 90
2002-11-28 09:15:04 51°27.386 2°56.001 12.8 192 9.2 100750 90
2002-11-28 09:15:08 51°27.382 2°56.011 10.9 186 9.2 100750 90
2002-11-28 09:15:14 51°27.377 2°56.026 11.3 183 9.2 100750 90
2002-11-28 09:15:18 51°27.373 2°56.036 9.8 181 9.2 100750 90
2002-11-28 09:15:24 51°27.368 2°56.053 10.9 179 9.2 100750 90
2002-11-28 09:15:28 51°27.365 2°56.063 10.1 180 9.2 100740 90
2002-11-28 09:15:34 51°27.361 2°56.078 11.2 175 9.2 100740 90
2002-11-28 09:15:38 51°27.359 2°56.087 11.2 177 9.2 100730 90
2002-11-28 09:15:44 51°27.356 2°56.099 10.1 170 9.2 100730 90
2002-11-28 09:15:48 51°27.354 2°56.106 10.5 161 9.2 100740 90
2002-11-28 09:15:54 51°27.353 2°56.114 9.7 158 9.2 100740 90
2002-11-28 09:15:59 51°27.353 2°56.12 9.2 167 9.2 100740 90
2002-11-28 09:16:04 51°27.354 2°56.124 9.7 162 9.2 100740 90
2002-11-28 09:16:08 51°27.354 2°56.126 8.6 160 9.2 100750 90
2002-11-28 09:16:14 51°27.356 2°56.129 7.8 159 9.2 100750 90
2002-11-28 09:16:19 51°27.357 2°56.131 7.3 156 9.2 100750 90
2002-11-28 09:16:24 51°27.359 2°56.133 8.3 161 9.2 100750 90
2002-11-28 09:16:28 51°27.36 2°56.135 8.1 154 9.2 100760 90
2002-11-28 09:16:34 51°27.362 2°56.137 8.8 153 9.2 100760 90
2002-11-28 09:16:38 51°27.364 2°56.139 8.8 146 9.2 100760 90
2002-11-28 09:16:44 51°27.366 2°56.141 7.7 149 9.2 100760 90
2002-11-28 09:16:48 51°27.367 2°56.143 8.2 157 9.2 100760 90
2002-11-28 09:16:54 51°27.369 2°56.145 7.4 144 9.2 100760 90
2002-11-28 09:16:59 51°27.371 2°56.148 9.1 155 9.2 100760 90
2002-11-28 09:17:04 51°27.373 2°56.15 7.8 144 9.2 100760 90
2002-11-28 09:17:11 51°27.375 2°56.153 7.5 144 9.2 100760 90
2002-11-28 09:17:15 51°27.377 2°56.155 8.6 145 9.2 100760 90
2002-11-28 09:17:19 51°27.378 2°56.156 7.5 156 9.2 100760 90
2002-11-28 09:17:25 51°27.38 2°56.159 7.9 145 9.2 100760 90
2002-11-28 09:17:29 51°27.381 2°56.161 7.8 142 9.2 100760 90
2002-11-28 09:17:35 51°27.384 2°56.164 8.4 138 9.2 100760 90
2002-11-28 09:17:39 51°27.385 2°56.166 8.7 149 9.2 100760 90
2002-11-28 09:17:45 51°27.387 2°56.168 7.7 151 9.2 100760 90
2002-11-28 09:17:49 51°27.388 2°56.17 7.7 147 9.2 100760 90
2002-11-28 09:17:55 51°27.39 2°56.173 7.2 148 9.2 100760 90
2002-11-28 09:17:59 51°27.392 2°56.175 8 142 9.2 100760 90
2002-11-28 09:18:05 51°27.394 2°56.178 8.6 143 9.2 100760 90
2002-11-28 09:18:09 51°27.396 2°56.181 7.7 143 9.2 100760 90
2002-11-28 09:18:15 51°27.398 2°56.184 7.4 148 9.2 100760 90
2002-11-28 09:18:19 51°27.399 2°56.186 8.1 143 9.2 100760 90
2002-11-28 09:18:25 51°27.401 2°56.189 8.6 139 9.2 100760 90
2002-11-28 09:18:29 51°27.403 2°56.191 8.9 136 9.3 100750 90
2002-11-28 09:18:35 51°27.405 2°56.194 8.4 134 9.3 100750 90
2002-11-28 09:18:39 51°27.407 2°56.196 9.4 136 9.3 100750 90
2002-11-28 09:18:45 51°27.409 2°56.199 8 132 9.3 100750 90
2002-11-28 09:18:49 51°27.411 2°56.201 8 138 9.2 100760 90
2002-11-28 09:18:55 51°27.413 2°56.204 8.2 139 9.2 100760 90
2002-11-28 09:18:59 51°27.415 2°56.207 7.9 138 9.2 100750 90
2002-11-28 09:19:05 51°27.417 2°56.21 8.2 134 9.2 100750 90
2002-11-28 09:19:09 51°27.418 2°56.212 8.4 144 9.2 100750 90
2002-11-28 09:19:15 51°27.42 2°56.215 7.5 140 9.2 100750 90
2002-11-28 09:19:19 51°27.422 2°56.217 9 135 9.2 100750 90
2002-11-28 09:19:25 51°27.424 2°56.22 8.1 135 9.2 100750 90
2002-11-28 09:19:29 51°27.426 2°56.222 7.6 134 9.2 100760 89
2002-11-28 09:19:35 51°27.428 2°56.225 7.4 140 9.2 100760 89
2002-11-28 09:19:39 51°27.429 2°56.227 8.5 145 9.2 100750 90
2002-11-28 09:19:45 51°27.431 2°56.231 8 144 9.2 100750 90
2002-11-28 09:19:49 51°27.433 2°56.233 8.4 141 9.2 100750 90
2002-11-28 09:19:55 51°27.435 2°56.236 7.5 143 9.2 100750 90
2002-11-28 09:19:59 51°27.436 2°56.238 8.7 142 9.2 100760 90
2002-11-28 09:20:05 51°27.438 2°56.241 7.9 146 9.2 100760 90
2002-11-28 09:20:10 51°27.44 2°56.244 7.1 129 9.2 100750 90
2002-11-28 09:20:15 51°27.441 2°56.246 6.8 140 9.2 100750 90
2002-11-28 09:20:19 51°27.443 2°56.248 7.1 142 9.2 100750 90
2002-11-28 09:20:25 51°27.445 2°56.252 9.4 141 9.2 100750 90
2002-11-28 09:20:29 51°27.446 2°56.254 7.8 147 9.2 100750 90
2002-11-28 09:20:35 51°27.448 2°56.257 8.7 143 9.2 100750 90
2002-11-28 09:20:39 51°27.45 2°56.259 8.9 153 9.2 100760 90
2002-11-28 09:20:45 51°27.451 2°56.263 8 147 9.2 100760 90
2002-11-28 09:20:48 51°27.452 2°56.264 8.3 149 9.2 100750 90
2002-11-28 09:20:54 51°27.454 2°56.268 8.8 149 9.2 100750 90
2002-11-28 09:20:58 51°27.456 2°56.27 8.1 159 9.2 100750 90
2002-11-28 09:21:05 51°27.458 2°56.274 10.5 156 9.2 100750 90
2002-11-28 09:21:08 51°27.459 2°56.276 9.7 152 9.2 100760 90
2002-11-28 09:21:14 51°27.461 2°56.279 8.3 154 9.2 100760 90
2002-11-28 09:21:18 51°27.462 2°56.281 9.3 152 9.2 100760 90
2002-11-28 09:21:24 51°27.464 2°56.285 8.6 156 9.2 100760 90
2002-11-28 09:21:28 51°27.465 2°56.287 9.7 151 9.2 100750 90
2002-11-28 09:21:32 51°27.467 2°56.289 9.7 150 9.2 100750 90
2002-11-28 09:21:38 51°27.469 2°56.293 9.5 149 9.2 100750 90
2002-11-28 09:21:44 51°27.471 2°56.296 8.6 147 9.2 100750 90
2002-11-28 09:21:48 51°27.472 2°56.298 9.3 150 9.2 100750 90